Location: Godiavel Galaoual
(15.2485°N, 12.6604°W)
Time: 10:00:16
(UTC+00:00)

NOSS 3-4 (C) - Pass Details

Date: 27 February 2020
Orbit: 900 x 1313 km, 63.4° (Epoch: 26 March)

Event Time Altitude Azimuth Distance (km) Brightness Sun altitude
Rises 20:56:22 0° 210° (SSW) 3,564 6.8 -29.3°
Reaches altitude 10° 20:58:56 10° 213° (SSW) 2,594 6.1 -29.9°
Maximum altitude 21:04:51 67° 295° (WNW) 968 3.5 -31.4°
Enters shadow 21:04:55 67° 299° (WNW) 968 3.5 -31.4°
